KLM1798 EHAM-EDDL

Flight info

Callsign KLM1798
Flight time N/A
Altitude 15000
Route ARNEM T196 TEBRO P62 PISAP PISAP1A
Aircraft E75L/M-SDE3GILORVW/S

Departure

Time N/A
Airport Amsterdam Airport Schiphol (EHAM)

Arrival

Time 2026-05-05 14:04
Airport Düsseldorf Airport (EDDL)
Time Latitude Longitude Altitude Speed Heading
2026-05-05 13:42 52.18258 5.72600 14326 ft 336 kts 112°
2026-05-05 13:42 52.17394 5.76132 14723 ft 338 kts 112°
2026-05-05 13:42 52.16514 5.79734 14845 ft 343 kts 112°
2026-05-05 13:43 52.15635 5.83327 14890 ft 341 kts 112°
2026-05-05 13:43 52.14768 5.86867 14909 ft 341 kts 112°
2026-05-05 13:43 52.13891 5.90441 14914 ft 341 kts 112°
2026-05-05 13:43 52.13015 5.93994 14915 ft 334 kts 111°
2026-05-05 13:44 52.12157 5.97491 14914 ft 334 kts 111°
2026-05-05 13:44 52.11291 6.00999 14915 ft 335 kts 112°
2026-05-05 13:44 52.10237 6.04379 14912 ft 335 kts 120°
2026-05-05 13:44 52.08992 6.07583 14912 ft 335 kts 123°
2026-05-05 13:45 52.07697 6.10683 15442 ft 323 kts 124°
2026-05-05 13:45 52.06424 6.13585 16180 ft 308 kts 128°
2026-05-05 13:45 52.05088 6.16206 16856 ft 294 kts 130°
2026-05-05 13:45 52.03794 6.18676 17530 ft 281 kts 131°
2026-05-05 13:46 52.02474 6.21148 17537 ft 302 kts 132°
2026-05-05 13:46 52.01039 6.23822 17516 ft 326 kts 131°
2026-05-05 13:46 51.99505 6.26696 17386 ft 348 kts 132°
2026-05-05 13:46 51.97880 6.29729 17170 ft 360 kts 131°
2026-05-05 13:47 51.96247 6.32778 16940 ft 355 kts 131°
2026-05-05 13:47 51.94637 6.35780 16681 ft 352 kts 131°
2026-05-05 13:47 51.93029 6.38773 16438 ft 352 kts 131°
2026-05-05 13:47 51.91417 6.41769 16186 ft 351 kts 131°
2026-05-05 13:48 51.89815 6.44748 15902 ft 351 kts 131°
2026-05-05 13:48 51.88214 6.47717 15591 ft 349 kts 131°
2026-05-05 13:48 51.86617 6.50675 15283 ft 348 kts 131°
2026-05-05 13:48 51.85037 6.53594 14996 ft 343 kts 130°
2026-05-05 13:49 51.83470 6.56497 14698 ft 342 kts 130°
2026-05-05 13:49 51.81918 6.59318 14411 ft 339 kts 133°
2026-05-05 13:49 51.79973 6.61470 14113 ft 342 kts 152°
2026-05-05 13:49 51.77729 6.62934 13828 ft 344 kts 159°
2026-05-05 13:50 51.75468 6.64062 13534 ft 345 kts 161°
2026-05-05 13:50 51.73131 6.65084 13207 ft 342 kts 163°
2026-05-05 13:50 51.70850 6.65889 12891 ft 339 kts 169°
2026-05-05 13:50 51.68526 6.66451 12578 ft 337 kts 171°
2026-05-05 13:51 51.66213 6.66985 12267 ft 335 kts 170°
2026-05-05 13:51 51.63914 6.67507 11960 ft 332 kts 171°
2026-05-05 13:51 51.61656 6.67997 11646 ft 323 kts 171°
2026-05-05 13:51 51.59473 6.68492 11350 ft 313 kts 172°
2026-05-05 13:52 51.57335 6.68959 10977 ft 307 kts 172°
2026-05-05 13:52 51.55238 6.69427 10592 ft 302 kts 172°
2026-05-05 13:52 51.53171 6.69885 10223 ft 297 kts 172°
2026-05-05 13:52 51.51136 6.70336 9851 ft 293 kts 172°
2026-05-05 13:53 51.49136 6.70780 9435 ft 283 kts 172°
2026-05-05 13:53 51.47255 6.71196 8936 ft 264 kts 172°
2026-05-05 13:53 51.45482 6.71589 8438 ft 251 kts 172°
2026-05-05 13:53 51.43791 6.71963 7936 ft 240 kts 172°
2026-05-05 13:54 51.42151 6.72327 7456 ft 235 kts 173°
2026-05-05 13:54 51.40554 6.72680 7006 ft 231 kts 173°
2026-05-05 13:54 51.38995 6.73023 6564 ft 222 kts 173°
2026-05-05 13:54 51.37454 6.73359 6152 ft 227 kts 174°
2026-05-05 13:55 51.35874 6.73712 5746 ft 232 kts 173°
2026-05-05 13:55 51.34249 6.74062 5352 ft 238 kts 173°
2026-05-05 13:55 51.32594 6.74430 4974 ft 242 kts 173°
2026-05-05 13:55 51.30913 6.74801 4570 ft 246 kts 174°
2026-05-05 13:56 51.29233 6.74488 4143 ft 247 kts 205°
2026-05-05 13:56 51.27959 6.72745 3961 ft 239 kts 239°
2026-05-05 13:56 51.27375 6.70336 3910 ft 229 kts 253°
2026-05-05 13:56 51.26904 6.67945 3881 ft 223 kts 252°
2026-05-05 13:57 51.26444 6.65598 3871 ft 221 kts 253°
2026-05-05 13:57 51.25993 6.63246 3889 ft 222 kts 253°
2026-05-05 13:57 51.25542 6.60878 3883 ft 223 kts 253°
2026-05-05 13:57 51.25086 6.58513 3881 ft 223 kts 253°
2026-05-05 13:58 51.24632 6.56148 3889 ft 223 kts 253°
2026-05-05 13:58 51.24177 6.53785 3875 ft 223 kts 253°
2026-05-05 13:58 51.23686 6.51445 3874 ft 223 kts 242°
2026-05-05 13:58 51.22633 6.49734 3876 ft 223 kts 205°
2026-05-05 13:59 51.19963 6.50487 3958 ft 187 kts 135°
2026-05-05 13:59 51.19122 6.51881 4028 ft 174 kts 124°
2026-05-05 14:00 51.19250 6.55766 4057 ft 193 kts 54°
2026-05-05 14:00 51.20088 6.57413 3992 ft 190 kts 50°
2026-05-05 14:00 51.20926 6.59037 3811 ft 190 kts 47°
2026-05-05 14:00 51.21807 6.60571 3367 ft 184 kts 50°
2026-05-05 14:01 51.22583 6.62276 2528 ft 198 kts 54°
2026-05-05 14:01 51.23291 6.64093 2115 ft 189 kts 54°
2026-05-05 14:01 51.24005 6.65820 1662 ft 183 kts 52°
2026-05-05 14:01 51.24738 6.67419 1297 ft 170 kts 49°
2026-05-05 14:02 51.25449 6.68836 1110 ft 158 kts 47°
2026-05-05 14:02 51.26142 6.70185 840 ft 153 kts 49°
2026-05-05 14:02 51.26760 6.71462 641 ft 136 kts 51°
2026-05-05 14:02 51.27309 6.72643 432 ft 130 kts 51°
2026-05-05 14:03 51.27863 6.73816 343 ft 135 kts 47°
2026-05-05 14:03 51.28444 6.75020 149 ft 135 kts 49°
2026-05-05 14:03 51.28950 6.76093 131 ft 107 kts 51°
2026-05-05 14:03 51.29345 6.76921 130 ft 71 kts 52°
2026-05-05 14:04 51.29531 6.77302 128 ft 33 kts 54°
2026-05-05 14:04 51.29587 6.77548 127 ft 20 kts 78°
2026-05-05 14:04 51.29577 6.77737 127 ft 11 kts 116°
2026-05-05 14:04 51.29542 6.77827 128 ft 9 kts 128°
2026-05-05 14:05 51.29502 6.77894 133 ft 7 kts 141°
2026-05-05 14:05 51.29438 6.77971 136 ft 16 kts 143°
2026-05-05 14:05 51.29338 6.78091 141 ft 18 kts 143°
2026-05-05 14:05 51.29227 6.78210 135 ft 20 kts 170°
2026-05-05 14:06 51.29113 6.78084 128 ft 23 kts 232°
2026-05-05 14:06 51.29014 6.77877 128 ft 24 kts 233°
2026-05-05 14:06 51.28913 6.77666 126 ft 23 kts 234°
2026-05-05 14:06 51.28814 6.77460 127 ft 23 kts 232°
2026-05-05 14:07 51.28716 6.77253 127 ft 23 kts 231°
2026-05-05 14:07 51.28618 6.77045 127 ft 23 kts 232°
2026-05-05 14:07 51.28518 6.76838 123 ft 25 kts 234°
2026-05-05 14:07 51.28428 6.76670 122 ft 10 kts 191°
2026-05-05 14:08 51.28381 6.76693 123 ft 3 kts 188°
2026-05-05 14:08 51.28348 6.76671 122 ft 7 kts 223°
2026-05-05 14:08 51.28319 6.76607 126 ft 7 kts 234°
2026-05-05 14:08 51.28272 6.76509 127 ft 13 kts 232°
2026-05-05 14:09 51.28205 6.76434 128 ft 12 kts 190°
2026-05-05 14:09 51.28121 6.76419 128 ft 13 kts 187°
2026-05-05 14:09 51.28078 6.76435 126 ft 7 kts 146°
2026-05-05 14:09 51.28043 6.76444 128 ft 3 kts 208°
2026-05-05 14:10 51.28021 6.76425 127 ft 4 kts 208°
2026-05-05 14:10 51.28016 6.76421 128 ft 0 kts 208°